TimeCST,TemperatureF,Dew PointF,Humidity,Sea Level PressureIn,VisibilityMPH,Wind Direction,Wind SpeedMPH,Gust SpeedMPH,PrecipitationIn,Events,Conditions,WindDirDegrees,DateUTC
12:15 AM,-0.4,-5.8,78,30.15,-9999.0,Calm,Calm,-,N/A,,Clear,0,2013-12-31 06:15:00
12:35 AM,-0.4,-5.8,78,30.14,-9999.0,Calm,Calm,-,N/A,,Clear,0,2013-12-31 06:35:00
12:55 AM,-2.2,-7.6,78,30.14,-9999.0,Calm,Calm,-,N/A,,Clear,0,2013-12-31 06:55:00
1:15 AM,-4.0,-7.6,85,30.13,-9999.0,West,3.5,-,N/A,,Clear,280,2013-12-31 07:15:00
1:35 AM,-4.0,-9.4,78,30.14,-9999.0,West,3.5,-,N/A,,Clear,260,2013-12-31 07:35:00
1:55 AM,-4.0,-7.6,85,30.13,-9999.0,West,4.6,-,N/A,,Clear,280,2013-12-31 07:55:00
2:15 AM,-4.0,-7.6,85,30.14,-9999.0,West,3.5,-,N/A,,Clear,270,2013-12-31 08:15:00
2:35 AM,-2.2,-7.6,78,30.13,-9999.0,Calm,Calm,-,N/A,,Clear,0,2013-12-31 08:35:00
2:55 AM,-2.2,-7.6,78,30.14,-9999.0,Calm,Calm,-,N/A,,Clear,0,2013-12-31 08:55:00
3:15 AM,-4.0,-9.4,78,30.14,-9999.0,Calm,Calm,-,N/A,,Clear,0,2013-12-31 09:15:00
3:35 AM,-4.0,-9.4,78,30.14,-9999.0,Calm,Calm,-,N/A,,Clear,0,2013-12-31 09:35:00
3:55 AM,-4.0,-9.4,78,30.14,-9999.0,Calm,Calm,-,N/A,,Clear,0,2013-12-31 09:55:00
4:15 AM,-4.0,-9.4,78,30.15,-9999.0,Calm,Calm,-,N/A,,Clear,0,2013-12-31 10:15:00
4:35 AM,-4.0,-9.4,78,30.16,-9999.0,Calm,Calm,-,N/A,,Clear,0,2013-12-31 10:35:00
4:55 AM,-5.8,-11.2,77,30.16,-9999.0,West,3.5,-,N/A,,Scattered Clouds,280,2013-12-31 10:55:00
5:15 AM,-4.0,-9.4,78,30.16,-9999.0,West,3.5,-,N/A,,Clear,280,2013-12-31 11:15:00
5:35 AM,-4.0,-9.4,78,30.17,-9999.0,WNW,3.5,-,N/A,,Scattered Clouds,290,2013-12-31 11:35:00
5:55 AM,-4.0,-9.4,78,30.17,-9999.0,Calm,Calm,-,N/A,,Mostly Cloudy,0,2013-12-31 11:55:00
6:15 AM,-4.0,-7.6,85,30.16,-9999.0,Calm,Calm,-,N/A,,Overcast,0,2013-12-31 12:15:00
6:35 AM,-4.0,-9.4,78,30.17,-9999.0,Calm,Calm,-,N/A,,Scattered Clouds,0,2013-12-31 12:35:00
6:55 AM,-4.0,-9.4,78,30.18,-9999.0,West,3.5,-,N/A,,Mostly Cloudy,270,2013-12-31 12:55:00
7:15 AM,-4.0,-7.6,85,30.18,-9999.0,WSW,3.5,-,N/A,,Overcast,250,2013-12-31 13:15:00
7:30 AM,-4.0,-9.4,78,30.19,-9999.0,Calm,Calm,-,N/A,,Scattered Clouds,0,2013-12-31 13:30:00
7:55 AM,-4.0,-9.4,78,30.20,-9999.0,West,3.5,-,N/A,,Clear,280,2013-12-31 13:55:00
8:15 AM,-4.0,-7.6,85,30.21,-9999.0,West,4.6,-,N/A,,Clear,280,2013-12-31 14:15:00
8:35 AM,-0.4,-5.8,78,30.23,-9999.0,SW,4.6,-,N/A,,Clear,230,2013-12-31 14:35:00
8:55 AM,-0.4,-5.8,78,30.23,-9999.0,WSW,3.5,-,N/A,,Clear,240,2013-12-31 14:55:00
9:15 AM,-0.4,-5.8,78,30.24,-9999.0,Calm,Calm,-,N/A,,Mostly Cloudy,0,2013-12-31 15:15:00
9:35 AM,1.4,-4.0,78,30.25,-9999.0,West,3.5,-,N/A,,Overcast,270,2013-12-31 15:35:00
9:55 AM,3.2,-2.2,78,30.26,-9999.0,West,5.8,-,N/A,,Overcast,260,2013-12-31 15:55:00
10:15 AM,5.0,-0.4,78,30.26,-9999.0,West,4.6,-,N/A,,Overcast,270,2013-12-31 16:15:00
10:35 AM,5.0,1.4,85,30.26,-9999.0,WNW,4.6,-,N/A,,Unknown,290,2013-12-31 16:35:00
10:55 AM,5.0,1.4,85,30.26,-9999.0,WNW,4.6,-,N/A,,Unknown,290,2013-12-31 16:55:00
11:15 AM,5.0,-0.4,78,30.25,-9999.0,West,5.8,-,N/A,,Overcast,280,2013-12-31 17:15:00
11:35 AM,5.0,1.4,85,30.24,-9999.0,West,4.6,-,N/A,,Overcast,270,2013-12-31 17:35:00
11:55 AM,5.0,1.4,85,30.25,-9999.0,West,5.8,-,N/A,,Overcast,260,2013-12-31 17:55:00
12:15 PM,5.0,1.4,85,30.24,-9999.0,WSW,4.6,-,N/A,,Overcast,250,2013-12-31 18:15:00
12:35 PM,6.8,1.4,79,30.24,-9999.0,West,4.6,-,N/A,,Overcast,260,2013-12-31 18:35:00
12:55 PM,6.8,1.4,79,30.23,-9999.0,Calm,Calm,-,N/A,,Overcast,0,2013-12-31 18:55:00
1:15 PM,6.8,3.2,85,30.22,-9999.0,Calm,Calm,-,N/A,,Overcast,0,2013-12-31 19:15:00
1:35 PM,6.8,1.4,79,30.22,-9999.0,Calm,Calm,-,N/A,,Overcast,0,2013-12-31 19:35:00
1:55 PM,6.8,1.4,79,30.22,-9999.0,West,3.5,-,N/A,,Overcast,260,2013-12-31 19:55:00
2:15 PM,8.6,3.2,79,30.22,-9999.0,West,3.5,-,N/A,,Overcast,280,2013-12-31 20:15:00
2:35 PM,8.6,1.4,73,30.21,-9999.0,Calm,Calm,-,N/A,,Overcast,0,2013-12-31 20:35:00
2:55 PM,8.6,3.2,79,30.21,-9999.0,Calm,Calm,-,N/A,,Overcast,0,2013-12-31 20:55:00
3:15 PM,8.6,3.2,79,30.22,-9999.0,Calm,Calm,-,0.01,,Overcast,0,2013-12-31 21:15:00
3:35 PM,8.6,3.2,79,30.22,-9999.0,Calm,Calm,-,0.01,,Overcast,0,2013-12-31 21:35:00
3:55 PM,8.6,3.2,79,30.22,-9999.0,Calm,Calm,-,0.02,,Overcast,0,2013-12-31 21:55:00
4:15 PM,8.6,3.2,79,30.22,-9999.0,Calm,Calm,-,N/A,,Overcast,0,2013-12-31 22:15:00
4:35 PM,8.6,3.2,79,30.22,-9999.0,Calm,Calm,-,N/A,,Overcast,0,2013-12-31 22:35:00
4:55 PM,8.6,3.2,79,30.22,-9999.0,Calm,Calm,-,N/A,,Overcast,0,2013-12-31 22:55:00
5:15 PM,8.6,3.2,79,30.24,-9999.0,North,3.5,-,N/A,,Overcast,360,2013-12-31 23:15:00
5:35 PM,8.6,3.2,79,30.25,1.2,North,3.5,-,N/A,Snow,Light Snow,350,2013-12-31 23:35:00
5:55 PM,8.6,3.2,79,30.25,2.5,North,3.5,-,N/A,Snow,Light Snow,350,2013-12-31 23:55:00
6:15 PM,8.6,3.2,79,30.26,-9999.0,North,3.5,-,N/A,Snow,Light Snow,350,2014-01-01 00:15:00
6:35 PM,8.6,3.2,79,30.26,3.0,Calm,Calm,-,N/A,Snow,Light Snow,0,2014-01-01 00:35:00
6:55 PM,8.6,3.2,79,30.26,5.0,Calm,Calm,-,N/A,Snow,Light Snow,0,2014-01-01 00:55:00
7:15 PM,8.6,3.2,79,30.27,7.0,Calm,Calm,-,N/A,Snow,Light Snow,0,2014-01-01 01:15:00
7:35 PM,8.6,1.4,73,30.27,10.0,NNE,4.6,-,N/A,Snow,Light Snow,20,2014-01-01 01:35:00
7:55 PM,8.6,3.2,79,30.27,-9999.0,North,3.5,-,N/A,,Overcast,10,2014-01-01 01:55:00
8:15 PM,8.6,3.2,79,30.26,-9999.0,NNE,4.6,-,N/A,Snow,Light Snow,30,2014-01-01 02:15:00
8:35 PM,8.6,1.4,73,30.27,10.0,NNE,3.5,-,N/A,,Overcast,30,2014-01-01 02:35:00
8:55 PM,8.6,1.4,73,30.27,10.0,NNE,5.8,-,N/A,,Overcast,30,2014-01-01 02:55:00
9:15 PM,8.6,1.4,73,30.28,-9999.0,NNE,4.6,-,N/A,,Overcast,30,2014-01-01 03:15:00
9:35 PM,8.6,1.4,73,30.26,-9999.0,NE,8.1,-,N/A,,Overcast,50,2014-01-01 03:35:00
9:55 PM,8.6,1.4,73,30.27,-9999.0,ENE,5.8,-,N/A,,Overcast,60,2014-01-01 03:55:00
10:15 PM,8.6,1.4,73,30.27,-9999.0,NE,5.8,-,N/A,,Overcast,50,2014-01-01 04:15:00
10:35 PM,8.6,1.4,73,30.26,-9999.0,NE,9.2,-,N/A,,Overcast,40,2014-01-01 04:35:00
10:55 PM,8.6,1.4,73,30.25,-9999.0,NE,9.2,-,N/A,,Overcast,40,2014-01-01 04:55:00
11:15 PM,8.6,1.4,73,30.26,-9999.0,NE,9.2,-,N/A,,Overcast,40,2014-01-01 05:15:00
11:35 PM,8.6,-0.4,67,30.26,-9999.0,NE,8.1,-,N/A,,Overcast,50,2014-01-01 05:35:00
11:55 PM,8.6,-0.4,67,30.25,-9999.0,NE,9.2,-,N/A,,Overcast,40,2014-01-01 05:55:00